Precipitable_Water
0.99 1.02 1.08 1.15 1.23 1.31 1.38 1.47 1.53 1.56 1.62 1.66 1.70 1.75 1.79 1.83 1.85 1.86 1.86 1.88 1.87 1.86 1.92 1.94 1.92 1.92 1.90 1.92 1.96 2.01 2.05 2.09 2.11 2.09 2.03 1.98 1.95 1.90 1.85 1.85 1.83 1.84 1.85 1.82 1.85 1.86 1.90 1.96 1.95 1.94 1.93 1.91 1.88 1.88 1.86 1.86 1.83 1.82 1.82 1.83 1.81 1.74 1.69
0.93 1.00 1.05 1.11 1.15 1.22 1.30 1.39 1.47 1.53 1.57 1.63 1.67 1.73 1.78 1.81 1.84 1.85 1.86 1.87 1.85 1.83 1.85 1.89 1.90 1.90 1.90 1.91 1.95 1.99 2.00 2.05 2.11 2.15 2.14 2.08 2.04 2.00 1.95 1.91 1.89 1.89 1.90 1.91 1.92 1.94 1.94 1.96 1.96 1.95 1.94 1.94 1.91 1.90 1.88 1.85 1.82 1.80 1.78 1.78 1.76 1.75 1.72
0.91 0.97 1.03 1.10 1.13 1.18 1.25 1.34 1.42 1.51 1.56 1.61 1.66 1.70 1.74 1.77 1.81 1.82 1.83 1.82 1.80 1.81 1.84 1.87 1.91 1.92 1.92 1.92 1.91 1.93 1.98 2.03 2.05 2.02 2.01 2.02 2.05 2.04 2.02 1.98 1.95 1.92 1.92 1.96 1.95 1.93 1.96 1.96 2.00 2.01 1.99 1.95 1.92 1.88 1.86 1.84 1.83 1.81 1.79 1.77 1.74 1.72 1.71
0.91 0.96 1.03 1.10 1.16 1.21 1.25 1.32 1.39 1.48 1.56 1.61 1.65 1.69 1.73 1.76 1.81 1.84 1.83 1.80 1.77 1.77 1.74 1.80 1.84 1.85 1.87 1.87 1.87 1.89 1.94 2.00 2.04 2.05 2.07 2.11 2.10 2.09 2.04 2.02 1.98 1.97 1.93 1.91 1.94 1.95 1.97 1.98 1.97 1.98 1.98 1.95 1.92 1.92 1.92 1.89 1.88 1.85 1.82 1.78 1.72 1.71 1.71
0.95 1.01 1.07 1.09 1.13 1.19 1.25 1.31 1.42 1.50 1.55 1.62 1.68 1.73 1.75 1.80 1.84 1.84 1.82 1.82 1.81 1.78 1.80 1.82 1.85 1.85 1.88 1.89 1.88 1.90 1.92 1.96 2.02 2.08 2.10 2.12 2.18 2.17 2.04 1.98 1.97 1.93 1.92 1.93 1.94 1.93 1.93 1.93 1.93 1.95 1.95 1.95 1.93 1.93 1.92 1.93 1.90 1.89 1.85 1.80 1.72 1.71 1.70
0.91 0.96 1.03 1.09 1.13 1.19 1.25 1.35 1.46 1.55 1.58 1.61 1.67 1.71 1.77 1.82 1.84 1.81 1.81 1.80 1.81 1.84 1.87 1.88 1.86 1.87 1.84 1.88 1.91 1.94 1.96 1.95 2.00 2.07 2.10 2.13 2.12 2.10 2.05 2.03 1.96 1.93 1.89 1.88 1.92 1.91 1.91 1.92 1.94 1.97 1.97 1.98 1.95 1.93 1.92 1.89 1.88 1.88 1.85 1.81 1.75 1.72 1.70
0.90 0.96 1.03 1.10 1.16 1.23 1.31 1.41 1.51 1.57 1.61 1.65 1.70 1.76 1.80 1.80 1.78 1.78 1.80 1.78 1.80 1.79 1.81 1.82 1.85 1.86 1.86 1.89 1.92 1.92 1.94 1.95 1.96 2.00 2.07 2.10 2.08 2.09 2.08 2.07 1.98 1.92 1.89 1.90 1.87 1.90 1.90 1.94 1.97 2.00 2.00 1.99 1.96 1.94 1.92 1.90 1.88 1.88 1.85 1.80 1.75 1.74 1.72
0.95 0.98 1.05 1.11 1.18 1.28 1.36 1.43 1.51 1.55 1.59 1.65 1.68 1.72 1.73 1.77 1.77 1.75 1.73 1.75 1.78 1.80 1.80 1.81 1.82 1.83 1.86 1.89 1.90 1.92 1.97 1.99 2.01 2.02 2.07 2.06 2.06 2.06 2.08 2.05 1.96 1.91 1.87 1.81 1.85 1.90 1.92 1.96 1.99 2.01 2.02 2.01 1.99 1.99 1.98 1.96 1.93 1.91 1.86 1.79 1.74 1.71 1.72
1.01 1.06 1.07 1.12 1.19 1.29 1.36 1.41 1.43 1.46 1.51 1.55 1.61 1.66 1.69 1.72 1.72 1.72 1.73 1.75 1.75 1.73 1.75 1.80 1.81 1.85 1.89 1.90 1.91 1.97 1.97 1.99 2.04 2.04 2.04 2.01 2.05 2.07 2.07 2.04 1.99 1.92 1.81 1.78 1.81 1.89 1.93 1.95 1.96 1.98 2.01 2.00 1.99 1.99 1.98 1.98 1.96 1.95 1.88 1.82 1.77 1.72 1.72
1.00 1.04 1.09 1.15 1.23 1.30 1.34 1.36 1.38 1.40 1.44 1.48 1.52 1.55 1.59 1.64 1.67 1.69 1.67 1.65 1.66 1.67 1.73 1.78 1.82 1.84 1.85 1.89 1.92 1.92 2.07 2.08 2.07 2.05 2.01 2.00 2.04 2.04 2.06 2.05 2.01 1.95 1.82 1.80 1.84 1.86 1.92 1.96 1.95 1.94 1.96 1.98 1.98 1.97 1.96 1.96 1.97 1.96 1.93 1.86 1.80 1.76 1.75
1.01 1.05 1.07 1.11 1.16 1.21 1.24 1.27 1.28 1.31 1.37 1.40 1.44 1.48 1.51 1.53 1.53 1.49 1.49 1.56 1.60 1.64 1.72 1.76 1.79 1.79 1.84 1.89 1.92 1.95 1.97 2.02 2.04 1.98 1.97 1.99 2.03 2.03 2.05 2.04 2.01 1.96 1.89 1.87 1.86 1.90 1.93 1.94 1.95 1.93 1.93 1.92 1.93 1.94 1.94 1.94 1.95 1.93 1.93 1.92 1.89 1.84 1.81
0.98 1.03 1.05 1.08 1.08 1.10 1.10 1.13 1.18 1.22 1.25 1.30 1.34 1.36 1.38 1.37 1.36 1.37 1.46 1.54 1.60 1.62 1.64 1.65 1.71 1.75 1.77 1.88 1.89 1.90 1.89 1.94 1.94 1.93 1.94 1.97 1.99 2.00 2.02 2.03 2.01 1.96 1.94 1.94 1.90 1.93 1.95 1.93 1.93 1.94 1.93 1.94 1.94 1.92 1.92 1.93 1.93 1.92 1.91 1.92 1.92 1.91 1.88
0.95 1.01 1.04 1.04 1.05 1.06 1.07 1.06 1.07 1.11 1.15 1.18 1.21 1.23 1.23 1.23 1.23 1.27 1.37 1.49 1.60 1.61 1.57 1.53 1.49 1.55 1.60 1.77 1.82 1.83 1.84 1.86 1.87 1.90 1.91 1.95 1.98 2.01 2.02 2.01 2.01 1.99 1.95 1.98 1.97 1.95 1.92 1.93 1.93 1.98 1.98 1.98 1.97 1.94 1.92 1.92 1.92 1.91 1.91 1.91 1.92 1.90 1.87
0.93 0.98 1.03 1.06 1.05 1.02 0.99 1.00 1.00 1.02 1.05 1.08 1.13 1.17 1.17 1.17 1.16 1.19 1.28 1.39 1.50 1.49 1.42 1.37 1.31 1.31 1.35 1.45 1.54 1.64 1.73 1.79 1.84 1.86 1.89 1.91 1.95 1.97 1.99 2.01 2.03 2.03 2.05 2.06 2.03 2.00 1.98 1.96 1.96 2.00 2.01 1.99 1.97 1.97 1.97 1.97 1.96 1.96 1.95 1.94 1.93 1.91 1.88
0.87 0.91 0.94 0.96 0.98 0.99 0.99 0.98 0.97 0.98 1.01 1.05 1.08 1.06 1.07 1.08 1.11 1.16 1.21 1.29 1.34 1.34 1.31 1.31 1.26 1.20 1.19 1.19 1.21 1.28 1.38 1.47 1.58 1.68 1.72 1.74 1.77 1.80 1.83 1.87 1.91 1.95 1.96 1.94 1.92 1.93 1.92 1.92 1.91 1.91 1.92 1.94 1.96 1.99 2.02 2.00 1.99 1.99 1.97 1.95 1.96 1.96 1.91
0.83 0.86 0.89 0.91 0.95 0.98 1.00 1.00 0.99 1.01 1.02 1.01 0.98 0.97 0.98 1.01 1.04 1.07 1.09 1.11 1.15 1.19 1.24 1.25 1.19 1.15 1.14 1.14 1.14 1.17 1.23 1.29 1.32 1.33 1.36 1.40 1.46 1.53 1.60 1.64 1.69 1.71 1.70 1.70 1.71 1.74 1.80 1.83 1.85 1.81 1.78 1.78 1.82 1.89 1.96 1.99 2.03 2.04 2.02 2.06 1.97 1.92 1.90
0.81 0.84 0.88 0.94 0.98 0.99 0.98 0.99 1.00 1.02 1.00 0.98 0.96 0.93 0.95 0.99 1.02 1.06 1.08 1.10 1.10 1.11 1.17 1.17 1.12 1.09 1.11 1.11 1.16 1.17 1.18 1.19 1.21 1.24 1.23 1.28 1.32 1.34 1.34 1.35 1.36 1.38 1.42 1.46 1.51 1.54 1.62 1.70 1.67 1.65 1.65 1.63 1.63 1.66 1.74 1.83 1.91 1.96 2.02 2.08 2.05 2.02 1.97
0.80 0.83 0.86 0.92 0.98 1.00 0.96 0.95 0.96 0.97 0.95 0.95 0.95 0.93 0.94 0.97 1.01 1.01 1.00 1.05 1.06 1.10 1.13 1.10 1.08 1.07 1.08 1.12 1.16 1.18 1.19 1.20 1.20 1.19 1.19 1.20 1.20 1.22 1.25 1.26 1.25 1.23 1.23 1.25 1.28 1.34 1.41 1.43 1.45 1.47 1.49 1.52 1.53 1.50 1.51 1.60 1.76 1.81 1.85 1.89 1.93 1.95 1.94
0.80 0.84 0.88 0.93 0.95 0.95 0.95 0.95 0.96 0.96 0.96 0.96 0.94 0.90 0.91 0.93 0.91 0.91 0.98 1.02 1.09 1.13 1.10 1.08 1.08 1.07 1.07 1.12 1.15 1.17 1.20 1.20 1.19 1.16 1.15 1.15 1.15 1.16 1.16 1.14 1.12 1.11 1.09 1.08 1.13 1.17 1.19 1.24 1.30 1.33 1.36 1.34 1.32 1.32 1.38 1.43 1.55 1.64 1.69 1.73 1.78 1.82 1.84
0.79 0.84 0.91 0.95 0.96 0.96 0.97 1.00 1.02 1.02 0.99 0.96 0.96 0.95 0.95 0.96 0.91 0.95 1.03 1.08 1.12 1.11 1.11 1.10 1.09 1.09 1.08 1.10 1.11 1.14 1.16 1.17 1.17 1.15 1.15 1.16 1.16 1.14 1.11 1.08 1.06 1.07 1.07 1.06 1.06 1.03 1.03 1.06 1.09 1.15 1.20 1.22 1.21 1.25 1.35 1.39 1.45 1.50 1.55 1.59 1.62 1.66 1.69
0.80 0.84 0.88 0.92 0.94 0.98 0.99 1.00 1.02 1.03 1.01 1.01 1.02 1.02 1.01 1.00 1.02 1.02 1.04 1.07 1.06 1.09 1.08 1.08 1.07 1.06 1.06 1.06 1.09 1.12 1.13 1.16 1.17 1.16 1.15 1.15 1.14 1.11 1.08 1.06 1.04 1.02 1.01 0.99 0.97 0.96 0.98 1.00 1.02 1.07 1.11 1.16 1.20 1.20 1.24 1.33 1.39 1.40 1.41 1.43 1.46 1.50 1.54
0.81 0.87 0.88 0.93 0.96 0.99 1.00 1.00 0.99 0.99 1.01 1.09 1.09 1.07 1.07 1.03 1.03 1.01 1.01 1.07 1.04 1.05 1.06 1.04 1.01 0.99 1.02 1.02 1.07 1.09 1.11 1.11 1.10 1.10 1.11 1.11 1.11 1.08 1.05 1.03 1.02 0.98 1.00 0.98 0.97 0.99 0.99 1.01 1.03 1.04 1.06 1.11 1.14 1.14 1.14 1.21 1.24 1.24 1.23 1.24 1.25 1.28 1.30
0.87 0.90 0.94 0.99 1.02 1.04 1.10 1.10 1.06 1.09 1.13 1.13 1.12 1.09 1.06 1.06 1.03 1.01 1.01 1.00 1.01 1.01 0.99 0.96 0.92 0.92 0.94 0.96 1.00 1.03 1.07 1.08 1.06 1.06 1.05 1.04 1.00 0.98 0.98 0.97 0.97 0.98 1.01 0.95 0.94 0.93 0.93 0.95 0.98 1.02 1.03 1.05 1.08 1.07 1.08 1.10 1.12 1.12 1.12 1.12 1.13 1.14 1.13
0.98 1.00 1.01 1.03 1.07 1.09 1.13 1.14 1.16 1.17 1.16 1.15 1.12 1.10 1.09 1.04 1.00 0.98 0.95 0.93 0.93 0.91 0.88 0.87 0.86 0.89 0.90 0.92 0.96 0.99 1.02 1.03 1.02 0.99 0.98 0.97 0.94 0.92 0.92 0.93 0.95 0.94 0.97 0.91 0.90 0.88 0.91 0.94 0.95 0.98 1.01 0.99 0.98 1.01 1.00 1.02 1.06 1.08 1.09 1.10 1.11 1.12 1.09
0.98 1.01 1.04 1.04 1.02 1.02 1.07 1.11 1.12 1.15 1.18 1.19 1.14 1.14 1.12 1.06 1.01 0.99 0.93 0.92 0.90 0.87 0.82 0.81 0.84 0.87 0.88 0.92 0.98 1.00 1.01 1.01 1.00 0.99 0.97 0.93 0.92 0.93 0.91 0.91 0.91 0.94 0.97 0.95 0.94 0.91 0.92 0.93 0.90 0.92 0.94 0.95 0.95 0.98 0.95 0.96 0.99 1.02 1.02 1.03 1.04 1.05 1.05
0.99 1.00 1.03 1.08 1.09 1.11 1.13 1.16 1.16 1.15 1.16 1.16 1.18 1.22 1.15 1.08 1.03 0.98 0.94 0.92 0.91 0.85 0.80 0.82 0.86 0.91 0.95 0.98 1.00 1.02 1.02 1.02 1.00 0.99 0.96 0.94 0.95 0.96 0.95 0.96 0.95 0.94 0.94 0.94 0.96 0.94 0.95 0.95 0.95 0.92 0.95 0.98 0.98 0.99 0.99 0.98 0.99 1.03 1.02 1.03 1.03 1.03 1.02
1.06 1.07 1.06 1.08 1.09 1.16 1.15 1.15 1.12 1.09 1.13 1.21 1.26 1.25 1.20 1.12 1.05 1.01 0.99 0.97 0.92 0.87 0.89 0.95 0.98 0.97 0.97 0.98 0.98 0.99 1.00 1.02 1.00 0.97 0.97 0.97 0.96 0.97 0.97 0.96 0.94 0.94 0.93 0.91 0.93 0.92 0.91 0.90 0.90 0.89 0.90 0.93 0.95 0.96 0.97 0.98 0.96 0.99 1.00 1.00 1.01 1.02 1.00
1.07 1.09 1.14 1.17 1.19 1.17 1.15 1.14 1.12 1.13 1.17 1.22 1.25 1.25 1.20 1.14 1.05 1.02 1.00 0.96 0.93 0.98 1.07 1.08 1.06 1.05 1.02 1.00 0.99 0.99 1.00 0.99 1.00 0.99 0.98 0.99 0.99 0.94 0.93 0.95 0.96 0.95 0.93 0.92 0.90 0.87 0.85 0.85 0.85 0.83 0.83 0.87 0.92 0.91 0.91 0.95 0.97 0.96 0.97 0.98 0.98 0.99 1.00
1.05 1.05 1.06 1.10 1.14 1.19 1.18 1.14 1.12 1.11 1.13 1.18 1.21 1.23 1.20 1.14 1.05 1.02 1.00 0.94 0.98 1.08 1.12 1.12 1.10 1.07 1.05 1.03 1.01 1.00 0.99 0.99 0.99 0.99 1.00 0.97 0.96 0.92 0.90 0.93 0.93 0.92 0.91 0.88 0.85 0.84 0.83 0.83 0.83 0.81 0.81 0.87 0.92 0.95 0.95 0.99 1.00 1.01 1.00 1.02 1.02 1.02 1.03
1.17 1.16 1.16 1.17 1.18 1.20 1.20 1.17 1.18 1.19 1.23 1.26 1.25 1.23 1.22 1.15 1.08 1.05 1.00 0.98 1.08 1.13 1.15 1.14 1.10 1.06 1.01 1.00 0.99 0.99 0.99 0.99 0.99 1.00 0.99 0.95 0.94 0.92 0.89 0.86 0.87 0.88 0.89 0.88 0.85 0.84 0.81 0.83 0.84 0.85 0.85 0.85 0.88 0.93 0.97 1.02 1.04 1.06 1.07 1.07 1.07 1.07 1.08
1.22 1.22 1.24 1.24 1.22 1.24 1.24 1.21 1.21 1.26 1.29 1.34 1.34 1.33 1.27 1.23 1.15 1.11 1.03 1.07 1.13 1.12 1.12 1.11 1.09 1.04 0.99 0.98 0.98 0.99 1.00 1.01 1.00 0.99 0.96 0.95 0.93 0.87 0.84 0.84 0.86 0.83 0.86 0.88 0.86 0.84 0.84 0.85 0.87 0.87 0.89 0.91 0.92 0.96 1.00 1.05 1.08 1.10 1.13 1.14 1.14 1.15 1.16
1.20 1.27 1.30 1.32 1.35 1.35 1.31 1.29 1.28 1.28 1.30 1.35 1.38 1.38 1.37 1.33 1.26 1.15 1.13 1.16 1.14 1.14 1.12 1.11 1.07 1.02 1.00 1.00 1.00 1.01 1.03 1.00 0.99 0.96 0.93 0.92 0.91 0.87 0.86 0.84 0.83 0.82 0.83 0.85 0.86 0.87 0.86 0.88 0.91 0.92 0.93 0.93 0.96 0.98 1.02 1.07 1.10 1.11 1.15 1.17 1.18 1.20 1.23
1.23 1.25 1.26 1.29 1.38 1.42 1.39 1.35 1.30 1.29 1.31 1.32 1.40 1.40 1.40 1.37 1.35 1.31 1.26 1.19 1.18 1.15 1.13 1.11 1.07 1.02 1.01 0.99 1.00 1.02 1.03 1.00 0.95 0.91 0.91 0.88 0.86 0.86 0.85 0.85 0.84 0.84 0.84 0.85 0.85 0.87 0.89 0.89 0.91 0.92 0.94 0.94 0.96 0.99 1.03 1.05 1.09 1.11 1.15 1.18 1.20 1.22 1.25
1.15 1.21 1.28 1.35 1.39 1.42 1.40 1.38 1.35 1.34 1.34 1.34 1.39 1.40 1.38 1.37 1.36 1.35 1.30 1.27 1.24 1.19 1.14 1.10 1.06 0.99 0.96 0.97 0.98 0.99 1.01 0.98 0.95 0.90 0.86 0.85 0.85 0.83 0.82 0.83 0.84 0.83 0.82 0.83 0.85 0.85 0.85 0.87 0.89 0.92 0.94 0.95 0.98 1.01 1.01 1.02 1.06 1.11 1.15 1.19 1.22 1.24 1.27
1.15 1.14 1.20 1.26 1.35 1.43 1.40 1.39 1.38 1.40 1.40 1.41 1.46 1.46 1.43 1.41 1.42 1.43 1.39 1.34 1.31 1.25 1.14 1.09 1.07 1.04 1.00 0.99 0.97 0.97 1.01 0.99 0.96 0.92 0.88 0.85 0.86 0.86 0.84 0.82 0.83 0.83 0.85 0.91 0.92 0.91 0.89 0.89 0.92 0.96 0.99 1.01 1.01 1.00 0.99 1.01 1.04 1.13 1.22 1.25 1.26 1.24 1.21
1.19 1.15 1.12 1.22 1.33 1.40 1.43 1.46 1.46 1.45 1.45 1.49 1.54 1.52 1.48 1.46 1.46 1.49 1.49 1.46 1.40 1.34 1.21 1.15 1.10 1.05 1.03 1.01 0.97 0.97 1.00 0.99 0.97 0.95 0.91 0.88 0.85 0.83 0.83 0.87 0.87 0.86 0.85 0.86 0.92 0.94 0.95 0.95 0.93 0.97 1.01 1.01 1.04 1.07 1.02 1.04 1.12 1.21 1.23 1.23 1.22 1.21 1.21
1.17 1.15 1.11 1.16 1.22 1.29 1.34 1.39 1.43 1.45 1.45 1.50 1.54 1.54 1.53 1.51 1.52 1.54 1.55 1.52 1.47 1.40 1.32 1.26 1.15 1.08 1.05 1.01 0.97 0.98 1.00 0.99 0.98 0.96 0.92 0.90 0.87 0.83 0.80 0.78 0.81 0.84 0.85 0.86 0.87 0.89 0.90 0.91 0.92 0.94 0.96 0.98 0.96 1.02 1.07 1.09 1.11 1.12 1.13 1.11 1.13 1.17 1.21
1.16 1.17 1.21 1.21 1.19 1.22 1.27 1.31 1.36 1.36 1.35 1.41 1.46 1.49 1.52 1.53 1.56 1.58 1.60 1.59 1.55 1.50 1.41 1.35 1.23 1.11 1.08 1.02 0.99 1.01 1.02 1.01 1.00 0.97 0.92 0.88 0.85 0.81 0.78 0.75 0.71 0.74 0.81 0.85 0.86 0.87 0.87 0.88 0.89 0.90 0.91 0.93 0.94 0.92 0.92 0.95 0.97 0.97 0.98 1.01 1.06 1.11 1.16
Wind_Speed
9 10 11 12 13 14 15 16 16 17 17 18 19 19 19 19 19 19 18 18 18 17 16 16 16 16 16 16 16 16 16 16 17 17 16 16 15 14 14 13 13 13 12 12 12 12 12 12 13 13 13 14 14 14 14 14 14 14 14 14 14 13 13
8 10 11 11 12 13 14 15 16 16 17 17 18 18 18 18 18 18 18 17 17 16 16 16 16 16 16 16 16 16 16 16 16 16 16 16 16 15 14 14 14 13 13 12 12 12 12 12 13 13 13 13 14 14 14 15 15 15 15 14 14 14 14
8 9 11 11 12 12 13 14 15 16 16 16 17 17 18 18 18 18 18 17 16 16 15 16 16 16 16 16 16 16 16 16 16 16 17 17 17 16 15 14 14 14 13 13 13 13 12 12 13 13 13 13 13 13 14 14 15 15 15 15 15 15 15
8 9 10 11 12 12 12 13 14 15 16 16 16 17 17 17 17 17 17 17 16 16 15 15 15 15 15 15 15 15 16 16 16 17 17 18 18 17 15 14 14 13 14 13 13 13 13 13 13 13 13 13 13 13 13 14 15 15 15 15 16 16 15
7 8 9 10 11 11 11 11 12 13 15 16 16 16 16 16 16 16 16 16 16 16 15 15 15 15 15 15 15 15 15 15 16 17 17 17 17 16 15 14 13 13 13 13 13 13 13 13 13 13 13 13 13 13 14 14 14 15 15 15 16 16 16
6 7 8 10 11 11 11 11 11 12 14 15 15 15 15 15 15 15 15 15 15 15 15 14 14 14 15 15 15 15 15 15 15 16 16 16 15 15 15 14 14 14 13 13 13 13 13 13 13 13 13 13 13 13 13 14 14 14 15 15 15 16 16
6 7 8 8 9 10 10 10 10 11 12 14 14 14 14 14 14 14 14 15 15 14 14 14 14 14 15 15 15 15 15 15 15 15 15 14 14 14 14 14 14 13 13 13 13 13 12 12 12 12 12 12 13 13 13 13 13 14 14 15 15 16 16
5 6 7 7 8 9 9 10 10 10 11 12 13 14 14 14 14 14 14 14 14 14 13 14 14 14 14 14 15 16 16 15 15 14 14 13 13 13 13 13 13 13 13 13 13 12 12 12 12 12 12 12 12 12 13 13 13 14 14 14 15 16 16
5 5 6 6 6 7 8 9 9 10 10 11 11 12 13 13 13 14 13 13 13 13 13 13 13 13 13 14 14 15 15 15 14 13 13 12 11 12 13 13 13 13 13 13 13 12 12 12 12 12 12 12 12 12 13 13 13 14 14 15 15 16 16
4 4 5 5 5 6 7 8 8 9 10 10 11 11 12 12 12 13 13 12 12 12 12 12 12 12 12 13 13 13 13 13 12 12 12 11 11 12 12 13 13 13 13 13 13 13 13 13 13 13 12 12 12 13 13 13 13 14 14 15 15 16 16
4 4 5 5 5 5 6 7 7 8 9 10 10 10 11 11 12 12 12 12 11 11 11 11 11 11 11 11 11 11 10 11 11 11 11 11 11 11 12 13 13 13 13 13 13 13 13 13 13 13 13 13 13 13 13 13 14 14 14 15 15 16 16
4 5 5 5 5 5 5 6 6 7 8 9 9 10 10 11 11 11 11 11 10 10 9 9 9 9 9 9 9 9 9 9 10 10 10 10 10 11 11 12 13 13 13 13 14 14 13 13 13 14 14 14 14 14 14 14 14 14 15 15 15 16 16
4 5 5 5 5 5 5 6 6 7 7 8 8 9 9 10 10 10 10 10 9 9 8 8 8 8 8 8 8 8 8 8 9 9 9 9 9 10 10 11 12 12 12 13 13 13 13 13 14 14 14 14 14 14 14 14 14 14 15 15 15 16 16
4 5 5 5 5 6 6 6 6 6 7 8 8 8 9 9 9 9 9 8 8 8 8 7 7 7 7 7 7 7 7 7 8 8 8 9 9 9 9 10 10 11 11 12 12 13 13 13 14 14 14 14 14 14 14 14 14 14 15 15 16 16 16
5 5 5 5 6 6 6 6 6 6 7 7 8 8 8 8 8 8 8 8 8 7 7 7 7 6 6 6 6 6 6 6 6 7 7 8 8 9 9 9 10 10 10 11 11 12 12 13 13 14 14 14 14 14 14 15 15 15 15 15 16 16 16
6 6 6 6 6 6 6 6 6 6 6 7 8 8 8 8 8 8 8 8 8 8 7 6 6 6 6 5 5 5 5 5 5 5 6 6 7 7 8 8 9 9 9 10 10 11 11 12 12 13 13 13 14 14 14 15 15 16 16 16 16 16 16
6 6 6 6 6 6 6 6 6 7 7 7 8 8 8 8 8 8 8 8 8 8 7 7 6 6 6 5 5 5 5 5 5 5 5 5 5 6 6 7 7 8 8 9 9 10 10 11 11 12 13 13 14 14 14 15 15 16 16 17 17 17 17
6 6 7 7 6 6 6 6 7 7 8 8 8 8 8 8 8 8 8 8 8 8 7 7 7 6 6 6 6 6 6 6 6 6 6 6 5 6 6 7 7 8 8 9 9 10 10 11 11 11 12 12 13 13 13 14 14 15 15 16 17 17 18
7 7 7 7 7 6 6 7 7 8 8 8 8 8 8 8 8 8 8 8 8 8 7 7 7 7 7 7 7 7 7 7 7 7 7 7 7 7 8 8 9 9 10 10 10 11 11 11 12 12 12 12 13 13 13 13 13 14 15 15 16 16 17
8 7 7 7 7 6 6 6 7 8 8 8 8 8 8 7 7 7 7 7 7 7 7 7 7 7 7 8 8 8 8 8 8 8 8 8 8 9 9 10 10 10 11 11 12 12 12 13 13 13 13 13 14 14 14 14 14 14 15 15 16 16 17
8 8 8 8 7 6 6 6 8 8 8 8 8 7 8 7 7 7 7 7 7 7 7 7 7 7 7 8 8 8 9 9 9 9 9 9 10 10 10 11 11 11 12 12 12 13 13 14 14 14 15 15 15 15 15 15 16 16 16 17 17 18 18
9 9 8 8 8 7 7 7 8 9 9 8 7 7 7 7 7 7 7 7 7 7 7 7 6 7 7 7 8 8 8 8 8 9 9 10 10 11 11 12 12 12 12 12 12 13 13 13 14 15 15 16 16 16 17 17 17 18 18 18 19 19 19
10 10 9 9 9 8 8 9 9 9 9 8 8 7 7 7 7 7 7 7 6 6 6 6 6 6 7 7 7 7 7 8 8 8 9 9 10 11 11 12 12 12 13 13 13 13 13 14 14 15 15 16 16 17 17 18 18 19 19 19 20 20 20
11 10 10 10 10 10 10 10 10 10 9 8 8 7 7 7 6 6 6 6 6 6 6 6 7 7 7 7 7 7 7 7 8 8 9 9 10 10 10 11 11 11 12 12 12 13 13 14 14 14 15 15 16 17 17 18 18 19 19 20 20 21 22
12 12 12 12 12 12 12 12 11 11 10 9 8 8 7 7 7 6 6 5 5 6 6 6 7 7 7 7 7 7 7 7 8 8 9 9 10 10 10 10 11 11 11 11 12 12 12 13 13 14 14 15 15 16 16 17 18 19 19 20 21 22 23
13 13 14 14 14 13 13 12 12 11 11 10 10 9 8 8 7 7 7 6 6 5 5 5 6 6 7 7 7 7 7 8 8 9 9 10 10 10 10 11 11 11 11 11 12 12 12 12 13 13 14 14 15 16 16 17 18 19 20 20 21 22 22
15 15 15 15 15 14 14 14 13 12 12 11 11 10 10 9 9 8 8 8 7 7 6 6 6 6 7 7 7 7 8 8 8 9 9 10 10 10 11 11 11 11 11 11 12 12 12 12 13 13 14 15 15 16 16 17 18 18 19 20 20 21 22
15 15 16 16 16 15 15 14 14 13 13 12 12 12 11 11 10 10 10 9 9 8 8 7 7 7 7 7 8 8 8 8 9 9 9 10 10 10 11 11 11 11 11 12 12 12 12 12 13 14 15 15 15 15 16 17 17 18 19 19 20 21 21
16 16 16 17 17 16 16 15 14 14 14 13 13 13 13 12 12 11 11 11 11 10 9 9 9 8 8 8 8 9 9 9 9 9 10 10 10 10 11 11 11 11 12 12 12 12 12 12 13 14 14 14 14 15 16 16 17 18 18 19 20 21 21
16 16 17 17 18 17 16 16 15 15 15 14 14 14 14 14 13 12 13 12 12 11 11 11 10 10 9 9 9 9 9 10 10 10 10 10 10 10 10 11 11 11 12 12 12 12 12 13 13 14 14 14 14 15 16 16 16 17 18 19 20 20 21
15 16 17 17 18 18 17 17 16 16 15 15 15 16 16 15 14 14 14 13 13 12 12 12 11 11 11 10 10 10 10 10 10 10 10 10 10 10 10 11 11 11 12 12 12 12 12 13 13 13 14 14 15 15 16 16 17 17 18 19 19 20 20
16 16 16 17 18 18 18 17 17 17 17 16 17 17 17 17 16 15 15 15 14 14 13 13 12 12 12 11 11 11 11 11 11 11 11 11 11 11 11 11 11 11 11 12 12 12 13 13 13 13 14 14 15 16 16 17 17 17 18 19 19 19 19
17 17 16 17 18 19 19 18 18 18 18 18 18 18 18 18 18 17 16 16 15 15 15 14 14 13 13 12 12 12 12 12 11 11 12 12 12 11 11 11 11 11 11 12 12 13 13 13 13 14 14 15 16 16 16 17 17 17 18 18 18 18 18
17 18 17 18 18 19 20 20 19 19 19 19 19 19 19 19 19 19 18 17 17 16 16 15 14 14 14 13 12 12 12 12 11 11 12 12 12 12 11 11 11 11 12 12 12 13 13 13 14 14 15 15 16 16 16 16 16 16 17 17 16 16 16
18 18 18 18 19 20 21 21 21 21 21 20 20 20 20 20 20 20 19 19 18 17 16 16 15 15 15 14 13 13 12 12 12 12 12 13 13 12 12 12 12 12 12 12 12 13 13 13 14 14 15 15 15 15 15 15 15 15 15 15 14 13 14
22 21 20 19 19 20 21 22 22 22 22 22 21 21 21 21 21 21 21 20 19 18 17 17 16 15 15 14 14 13 13 13 12 13 13 13 13 12 12 12 12 12 12 12 12 13 13 13 13 14 14 14 13 13 13 13 13 13 13 12 12 12 12
25 24 24 23 22 22 22 23 23 23 23 23 23 23 23 23 22 22 22 22 21 20 19 18 17 17 16 15 14 14 14 14 14 14 14 13 13 13 12 12 12 12 12 12 12 12 12 12 13 13 12 12 12 12 11 11 11 11 11 11 11 11 12
27 27 26 25 24 24 24 24 25 25 25 24 25 25 25 25 24 24 24 24 23 22 21 20 19 18 17 16 15 15 15 15 15 15 15 14 13 13 13 12 12 12 11 11 11 11 11 11 11 11 10 10 10 10 10 10 10 10 10 10 11 11 12
Wind_Direction
215 214 211 211 211 212 214 214 214 214 214 214 213 214 215 217 219 220 223 226 228 230 232 233 233 233 234 236 237 238 239 239 238 236 236 234 234 234 234 236 239 242 243 244 245 247 248 250 249 249 249 249 249 249 247 246 244 243 242 241 242 243 243
218 219 216 214 214 214 215 214 213 214 214 215 214 214 215 217 219 220 223 225 227 229 231 232 233 233 234 236 237 239 240 241 241 240 239 237 234 233 234 236 238 242 244 245 247 249 250 250 250 250 249 249 249 248 248 247 246 244 242 241 241 241 242
221 221 219 218 217 216 216 215 213 213 213 213 213 214 215 217 219 221 222 224 226 228 230 232 232 233 233 235 238 240 241 243 243 241 240 237 234 232 232 234 237 241 243 245 247 250 250 250 250 249 249 250 250 249 248 247 246 245 243 241 241 240 240
226 223 220 219 219 217 216 214 213 212 211 212 212 213 215 216 218 219 221 222 224 227 229 231 232 232 232 234 237 241 243 243 243 242 241 238 235 231 231 232 236 239 242 244 247 249 250 250 250 250 250 250 250 249 247 246 245 245 243 242 241 240 240
229 223 219 218 218 216 215 214 214 212 211 212 212 213 215 216 217 218 219 222 224 227 230 232 233 232 232 234 238 241 243 244 245 244 242 241 237 232 231 232 235 238 241 244 247 249 250 251 251 252 251 250 249 249 248 247 245 245 244 242 241 240 240
227 220 217 217 215 215 214 212 213 212 211 211 212 213 214 215 216 217 219 222 224 228 232 233 233 233 234 236 238 241 243 244 245 245 245 245 240 233 231 232 235 238 240 243 246 249 251 251 251 251 251 250 250 248 248 247 246 245 244 243 241 240 240
224 217 215 214 212 212 213 212 211 211 212 212 212 212 213 214 216 217 219 222 225 229 231 232 233 234 235 238 240 241 243 244 244 245 245 245 240 233 231 232 235 238 240 242 245 247 249 249 250 251 251 251 250 249 248 247 246 245 244 243 242 241 241
220 211 208 207 208 209 210 211 210 210 210 210 210 210 212 214 215 217 219 223 226 229 230 232 233 234 237 239 241 244 244 243 242 243 244 243 239 233 231 233 235 238 240 241 243 245 246 247 249 251 252 252 251 250 249 248 247 245 244 244 242 242 242
217 207 201 197 200 205 207 208 207 207 205 204 205 207 210 213 214 216 219 222 225 228 229 231 234 236 239 242 245 248 248 244 240 240 242 243 240 234 232 234 237 239 239 240 242 243 245 247 248 251 252 252 252 251 250 249 248 247 245 245 244 243 244
208 200 196 189 190 198 202 203 204 203 202 200 201 203 206 208 210 212 216 219 222 224 226 229 233 237 241 245 249 251 248 241 236 235 238 241 240 236 234 235 238 238 239 240 242 244 246 247 248 250 252 252 252 252 251 251 250 248 247 246 245 245 245
198 193 190 183 183 191 197 200 202 201 201 202 202 203 203 204 206 209 212 214 217 219 222 227 231 235 241 245 247 247 243 235 230 231 235 239 239 236 236 237 238 239 240 242 243 246 248 248 248 250 252 253 253 253 253 252 251 250 249 248 247 246 246
191 192 189 183 182 187 192 196 198 197 197 199 200 202 203 204 205 207 209 211 214 216 219 224 229 233 238 241 242 242 238 231 228 229 232 234 235 235 236 238 239 241 242 243 245 248 249 249 249 250 253 255 255 255 255 254 253 252 251 250 249 249 249
187 190 187 185 183 183 185 188 190 189 189 191 192 195 197 199 200 202 203 206 209 213 217 221 225 230 234 236 236 235 233 228 226 227 229 231 233 235 237 238 239 241 242 244 246 248 250 251 251 253 255 256 256 255 256 256 254 253 253 252 251 251 251
182 182 183 186 184 182 181 183 186 186 186 187 186 188 191 192 193 195 197 200 204 208 213 217 220 224 228 231 230 229 228 225 224 225 227 230 232 234 236 237 238 239 242 244 247 249 252 253 253 254 255 256 256 256 257 257 256 255 255 254 254 254 254
185 185 186 188 189 189 185 183 186 188 188 186 184 185 188 189 189 191 193 197 200 204 209 213 216 220 223 224 224 223 222 222 224 227 230 232 233 235 235 235 237 239 242 246 249 252 253 253 254 254 255 256 257 257 258 258 258 258 257 257 256 257 257
189 189 189 189 189 192 190 188 187 187 186 185 185 186 188 189 191 193 194 197 200 203 206 208 212 215 217 219 220 220 220 222 224 228 230 232 234 237 237 238 240 243 246 250 252 254 255 255 256 257 258 259 259 259 260 260 260 260 259 259 259 260 260
189 190 192 191 189 190 192 193 191 187 186 187 188 188 188 191 194 196 199 202 204 206 206 206 208 210 213 216 218 219 221 222 223 225 229 233 236 238 240 243 247 250 254 255 257 257 257 258 258 259 261 262 262 263 263 263 262 262 261 261 261 262 262
190 192 193 192 191 192 195 196 195 191 189 189 190 190 190 191 193 197 202 205 208 209 209 211 213 214 216 218 220 222 224 225 225 228 233 236 240 243 247 253 257 260 262 264 264 264 263 263 264 265 266 266 267 267 266 265 265 265 265 264 264 264 264
195 196 197 196 195 195 196 200 200 196 191 189 189 190 191 191 193 198 202 204 207 209 212 218 221 222 224 226 228 230 232 233 235 236 239 242 246 251 256 261 264 266 268 269 269 269 268 268 268 269 270 270 271 271 269 267 268 268 268 268 268 268 266
201 199 197 197 198 197 198 200 200 198 194 191 190 191 192 194 196 198 201 201 203 207 212 218 223 227 230 232 233 236 238 239 241 242 245 249 254 258 262 264 266 267 267 268 268 268 267 268 267 268 269 270 270 271 271 270 270 269 269 269 269 269 268
207 204 200 200 199 199 198 196 196 197 195 192 192 192 194 198 200 199 200 202 204 208 212 216 222 227 231 233 235 237 239 241 243 246 250 254 258 261 265 267 268 269 268 269 268 267 266 267 267 267 268 269 269 270 270 271 272 271 271 271 272 271 270
209 207 206 204 201 200 196 192 193 194 193 192 193 195 198 203 203 202 203 206 208 211 214 217 222 227 230 232 235 237 239 242 246 250 254 258 261 264 267 269 271 271 272 272 272 270 269 268 268 269 269 269 270 270 271 272 273 273 273 274 274 273 272
214 212 211 208 205 202 199 197 196 194 192 193 197 201 206 209 207 204 203 206 210 214 217 221 225 229 231 233 234 236 240 244 248 253 258 262 265 268 269 271 272 273 273 274 274 273 272 271 272 272 271 271 272 272 273 273 273 274 275 275 275 274 273
220 218 213 208 205 202 201 202 202 200 199 200 203 208 211 212 211 208 207 209 212 216 221 225 229 232 234 236 238 240 244 248 252 257 262 266 269 271 272 273 274 275 275 276 276 276 275 275 275 275 275 275 275 275 275 274 274 275 275 275 276 275 274
224 223 218 212 208 205 205 205 204 205 207 209 210 214 214 213 213 215 217 219 218 221 226 232 235 238 239 241 243 246 250 254 258 262 266 269 272 274 276 276 277 278 278 279 280 280 280 279 278 278 279 278 278 277 277 276 276 277 277 276 276 276 275
223 223 223 219 214 210 209 208 206 206 209 212 212 215 216 215 216 220 223 224 225 230 236 243 246 247 247 246 247 249 253 258 262 266 269 271 273 274 276 278 278 279 280 281 282 283 283 282 281 281 281 281 281 281 280 280 280 280 280 279 279 278 277
223 223 223 221 218 213 211 211 211 211 213 215 214 215 217 219 222 225 227 228 231 238 245 252 256 256 255 254 253 254 257 261 264 268 271 272 274 276 277 278 279 280 281 281 282 282 283 283 283 283 284 284 284 284 284 285 284 284 284 283 282 281 281
223 223 223 221 220 217 215 216 216 216 218 220 220 220 222 224 227 231 233 233 236 241 245 251 256 257 258 258 258 259 261 263 265 269 271 273 276 278 279 280 280 281 281 282 282 282 282 283 285 287 287 287 286 286 287 288 288 287 287 286 286 284 283
226 226 224 222 221 220 220 221 221 221 222 224 225 226 226 227 230 234 236 238 240 242 244 247 252 255 257 258 259 260 262 264 266 269 271 274 276 278 280 280 280 281 281 281 282 282 282 283 286 288 289 289 288 288 290 291 291 291 291 290 290 288 286
232 231 228 224 223 222 223 225 226 226 228 228 229 230 229 230 233 236 238 240 242 243 243 245 250 252 255 258 259 259 261 263 267 270 272 274 276 278 279 280 281 281 281 281 282 282 282 284 287 288 290 291 291 291 293 294 294 295 295 295 294 292 290
235 235 233 230 227 225 226 229 230 231 234 234 234 233 233 234 236 237 239 241 242 242 243 247 250 253 256 259 260 260 261 264 268 271 272 273 274 276 278 280 281 281 281 282 283 283 283 285 288 290 292 294 294 295 296 295 296 297 298 297 296 295 293
235 237 237 235 232 229 229 231 233 235 238 239 238 236 236 238 239 240 241 242 243 243 246 249 251 253 257 260 260 260 262 264 268 270 271 272 273 275 277 279 281 283 284 284 284 284 285 287 289 291 294 296 297 297 297 297 297 298 298 298 297 296 294
235 238 240 239 237 234 233 234 236 236 238 240 240 239 239 240 241 242 242 243 244 245 246 248 251 254 258 259 259 260 262 264 265 267 269 271 273 274 276 279 282 286 287 287 287 286 287 288 291 293 295 296 297 298 298 298 299 300 299 299 299 298 297
237 238 241 242 241 238 236 236 237 238 238 239 240 241 242 242 243 243 242 242 243 244 245 248 252 256 259 258 256 258 261 262 261 264 268 270 271 272 275 279 283 287 288 289 288 288 289 290 292 294 296 297 297 298 299 301 301 302 302 301 301 301 300
241 240 241 243 241 239 238 239 239 240 241 241 241 241 242 243 244 244 243 242 243 243 244 247 252 256 258 256 252 253 257 260 261 263 266 268 269 271 274 278 281 284 287 288 289 290 290 291 293 296 298 299 299 300 302 304 303 303 303 303 303 304 305
245 244 244 244 243 242 242 242 242 244 245 245 244 244 244 244 245 244 243 242 243 243 244 246 251 255 255 252 249 249 253 257 260 262 264 266 267 269 273 277 280 282 284 287 289 290 291 292 294 298 301 302 304 306 307 308 307 307 308 307 308 309 312
247 248 248 247 247 246 245 244 245 248 249 248 247 247 246 246 246 245 243 242 242 242 244 246 249 251 250 249 249 250 252 257 260 261 263 264 266 268 271 275 278 280 283 286 289 291 293 295 297 301 303 305 308 311 313 314 315 316 315 314 314 314 316
249 250 247 245 246 248 247 246 247 249 251 251 250 249 249 248 246 245 243 242 242 242 243 245 247 247 247 249 250 250 253 257 259 259 260 261 263 266 269 271 273 276 281 285 287 291 295 299 301 303 305 307 309 312 314 317 319 320 319 320 321 320 320